カタログに戻る

ARABSAT 1D

ANIK D2

運用中通信GEO
NORAD 15383·PAYLOAD·🇦🇪 UAE🇸🇦 Saudi Arabia

打ち上げ Nov 8, 1984 から Cape Canaveral Space Force Station

Loading…

TLE

最新Source: Space-Track

元期: Sep 14, 2026, 11:30 UTC

1 15383U 84113B   26257.47942390 -.00000038  00000-0  00000-0 0  9999
2 15383  13.5234 341.0469 0024001  28.8372   4.9694  0.98907179115733

AllMySatでARABSAT 1Dをリアルタイム追跡

Download on the App Store